Date,TemperatureHighF,TemperatureAvgF,TemperatureLowF,DewpointHighF,DewpointAvgF,DewpointLowF,HumidityHigh,HumidityAvg,HumidityLow,PressureMaxIn,PressureMinIn,WindSpeedMaxMPH,WindSpeedAvgMPH,GustSpeedMaxMPH,PrecipitationSumIn
2014-1-1,25,19,13,18,14,8,87,81,66,0.00,40.00,6,3,10,0.00
2014-1-2,21,16,4,17,12,-2,87,83,74,0.00,40.00,7,5,15,0.01
2014-1-3,13,4,-2,-2,-7,-10,75,63,42,0.00,40.00,8,4,15,0.03
2014-1-4,33,19,0,5,-1,-100,77,48,28,0.00,40.00,10,6,20,0.06
2014-1-5,40,32,22,38,18,4,95,58,35,0.00,40.00,10,5,20,0.16
2014-1-6,43,17,-10,42,12,-19,96,79,58,0.00,40.00,12,8,27,0.68
2014-1-7,-2,-8,-15,-11,-18,-24,70,60,52,0.00,40.00,9,7,20,0.22
2014-1-8,15,5,-4,10,-3,-11,80,69,51,0.00,40.00,6,4,10,0.00
2014-1-9,28,18,14,22,12,8,84,77,49,0.00,40.00,6,3,9,0.01
2014-1-10,38,32,25,37,30,20,98,92,79,0.00,40.00,9,4,14,0.19
2014-1-11,48,42,33,47,38,-100,98,91,76,0.00,40.00,10,6,17,0.74
2014-1-12,33,30,28,29,26,24,90,83,75,0.00,40.00,10,6,17,0.08
2014-1-13,48,39,28,42,30,24,96,74,45,0.00,40.00,8,6,17,0.41
2014-1-14,44,37,28,43,35,27,97,92,72,0.00,40.00,6,3,11,0.58
2014-1-15,34,29,23,31,21,10,94,73,56,0.00,40.00,7,4,15,0.01
2014-1-16,29,23,19,16,12,9,71,62,51,0.00,40.00,7,5,12,0.01
2014-1-17,37,29,25,28,23,16,94,78,56,0.00,40.00,7,4,16,0.04
2014-1-18,28,14,9,27,6,-100,94,72,61,0.00,40.00,7,4,12,0.01
2014-1-19,27,19,9,16,12,4,86,75,62,0.00,40.00,9,5,19,0.00
2014-1-20,30,26,14,27,19,7,89,75,69,0.00,40.00,9,6,18,0.00
2014-1-21,14,9,-3,7,-2,-11,75,62,44,0.00,40.00,7,4,13,0.00
2014-1-22,12,1,-8,-3,-10,-14,77,60,36,0.00,40.00,6,3,10,0.00
2014-1-23,14,6,-1,4,-1,-7,80,75,57,0.00,40.00,7,3,15,0.00
2014-1-24,10,4,-3,-2,-6,-9,77,64,48,0.00,40.00,9,6,16,0.00
2014-1-25,21,15,6,17,7,-100,85,74,46,0.00,40.00,10,7,19,0.00
2014-1-26,26,10,0,19,3,-7,81,75,69,0.00,40.00,8,5,15,0.00
2014-1-27,33,15,0,26,6,-8,91,66,40,0.00,40.00,10,7,24,0.00
2014-1-28,7,-3,-13,-8,-14,-20,73,60,41,0.00,40.00,6,3,12,0.00
2014-1-29,15,2,-10,-6,-12,-18,69,53,34,0.00,40.00,10,5,20,0.00
2014-1-30,28,15,1,1,-6,-9,70,44,19,0.00,40.00,8,5,15,0.10
2014-1-31,33,28,22,22,12,1,81,52,38,0.00,40.00,7,4,12,0.02
2014-2-1,41,32,24,30,22,-100,92,70,49,0.00,40.00,6,3,11,0.13
2014-2-2,41,32,23,37,29,19,97,89,55,0.00,40.00,5,3,10,0.20
2014-2-3,24,21,17,19,16,11,92,82,74,0.00,40.00,4,3,7,0.01
2014-2-4,32,19,6,13,8,1,86,63,37,0.00,40.00,6,3,13,0.00
2014-2-5,29,22,15,26,19,9,92,87,51,0.00,40.00,8,6,15,0.01
2014-2-6,18,14,5,11,8,1,85,78,65,0.00,40.00,6,4,14,0.01
2014-2-7,19,11,3,11,-1,-7,83,59,40,0.00,40.00,8,5,17,0.00
2014-2-8,18,6,-6,5,-4,-12,82,64,34,0.00,40.00,5,2,7,0.00
2014-2-9,22,14,6,17,9,1,85,81,74,0.00,40.00,5,3,13,0.00
2014-2-10,21,13,7,9,5,2,85,72,48,0.00,40.00,7,3,13,0.02
2014-2-11,15,8,-2,4,-1,-7,83,68,49,0.00,40.00,5,2,9,0.01
2014-2-12,27,9,-9,3,-5,-16,81,55,31,0.00,40.00,8,4,14,0.00
2014-2-13,30,21,12,24,14,0,89,73,55,0.00,40.00,5,3,8,0.00
2014-2-14,27,24,19,22,18,12,89,80,68,0.00,40.00,8,4,18,0.00
2014-2-15,27,20,7,19,10,-100,90,70,51,0.00,40.00,8,4,15,0.02
2014-2-16,22,12,1,15,6,-4,83,77,69,0.00,40.00,6,3,10,0.01
2014-2-17,30,17,-4,10,-2,-10,84,49,20,0.00,40.00,13,5,28,0.02
2014-2-18,29,25,20,27,20,10,94,82,58,0.00,40.00,13,6,28,0.01
2014-2-19,44,36,29,38,28,17,92,74,45,0.00,40.00,8,6,16,0.56
2014-2-20,45,34,22,35,28,20,95,81,38,0.00,40.00,9,4,16,0.33
2014-2-21,48,40,34,46,32,16,94,72,44,0.00,40.00,11,7,26,0.50
2014-2-22,47,37,31,31,16,-100,92,44,31,0.00,40.00,11,7,24,0.01
2014-2-23,42,33,24,31,23,9,95,70,36,0.00,40.00,8,4,13,0.09
2014-2-24,24,20,18,15,10,6,77,64,53,0.00,40.00,8,6,15,0.03
2014-2-25,25,17,13,11,7,4,83,66,41,0.00,40.00,7,5,15,0.03
2014-2-26,17,11,3,10,-3,-11,81,55,28,0.00,40.00,8,5,18,0.02
2014-2-27,16,7,-7,8,-5,-17,76,58,40,0.00,40.00,11,6,24,0.00
2014-2-28,21,7,-12,-11,-15,-19,69,39,17,0.00,40.00,6,2,10,0.00
2014-3-1,43,26,8,19,4,-100,58,40,27,0.00,40.00,6,4,12,0.00
2014-3-2,31,18,6,20,8,-11,84,64,41,0.00,40.00,6,4,11,0.00
2014-3-3,20,7,-3,-7,-9,-12,69,50,25,0.00,40.00,6,4,16,0.08
2014-3-4,30,12,-9,-2,-12,-17,74,42,12,0.00,40.00,5,2,8,0.01
2014-3-5,28,20,10,7,0,-7,68,43,28,0.00,40.00,6,4,12,0.00
2014-3-6,33,19,5,6,-2,-10,66,41,25,0.00,40.00,9,6,17,0.00
2014-3-7,50,32,17,24,16,6,78,52,32,0.00,40.00,7,4,13,0.00
2014-3-8,38,31,25,31,25,-100,92,82,72,0.00,40.00,6,3,11,0.02
2014-3-9,35,26,15,19,14,10,81,61,39,0.00,40.00,7,5,14,0.03
2014-3-10,53,41,30,34,26,16,69,56,44,0.00,40.00,7,6,17,0.02
2014-3-11,58,47,36,37,34,30,93,63,36,0.00,40.00,6,3,18,0.00
2014-3-12,44,32,11,38,28,4,96,84,61,0.00,40.00,10,6,18,0.66
2014-3-13,21,12,0,4,-3,-8,75,53,31,0.00,40.00,9,6,19,0.01
2014-3-14,54,37,16,26,17,1,59,45,32,0.00,40.00,12,6,21,0.02
2014-3-15,49,36,25,36,28,16,92,73,40,0.00,40.00,9,6,19,0.14
2014-3-16,25,20,15,17,4,-100,70,53,34,0.00,40.00,6,4,12,0.01
2014-3-17,38,25,10,2,-4,-100,59,32,15,0.00,40.00,7,5,12,0.00
2014-3-18,47,36,23,23,18,11,66,48,37,0.00,40.00,8,5,17,0.00
2014-3-19,45,38,33,39,28,16,96,68,46,0.00,40.00,10,7,17,0.03
2014-3-20,41,32,30,39,26,-100,96,81,68,0.00,40.00,10,7,23,0.56
2014-3-21,46,34,27,22,18,-100,69,55,33,0.00,40.00,6,4,13,0.01
2014-3-22,44,37,30,36,27,21,87,69,49,0.00,40.00,9,6,16,0.02
2014-3-23,30,24,16,25,10,-100,83,59,39,0.00,40.00,8,6,14,0.02
2014-3-24,25,22,17,12,5,2,79,48,39,0.00,40.00,6,4,13,0.00
2014-3-25,35,22,10,18,8,1,86,60,23,0.00,40.00,6,4,11,0.00
2014-3-26,24,16,9,18,3,-2,83,57,36,0.00,40.00,9,6,21,0.00
2014-3-27,45,27,6,23,7,1,82,50,16,0.00,40.00,8,5,15,0.02
2014-3-28,54,45,35,48,35,19,89,70,41,0.00,40.00,8,6,18,0.22
2014-3-29,43,35,32,38,32,30,93,91,82,0.00,40.00,7,4,13,0.62
2014-3-30,41,32,27,30,25,-100,94,80,64,0.00,40.00,9,6,23,0.78
2014-3-31,59,40,23,25,21,15,82,52,19,0.00,40.00,5,3,13,0.03
2014-4-1,71,52,35,35,25,20,60,39,16,0.00,40.00,10,6,22,0.00
2014-4-2,59,46,36,34,26,19,73,48,23,0.00,40.00,8,4,16,0.00
2014-4-3,57,43,35,41,25,11,94,55,16,0.00,40.00,8,5,14,0.38
2014-4-4,50,45,42,49,43,34,97,94,72,0.00,40.00,10,7,24,1.01
2014-4-5,42,33,26,34,25,21,94,73,52,0.00,40.00,10,6,20,0.28
2014-4-6,57,38,19,24,17,-100,93,55,19,0.00,40.00,5,2,8,0.00
2014-4-7,46,41,36,41,28,17,95,65,36,0.00,40.00,9,5,18,0.79
2014-4-8,52,44,37,46,37,24,97,78,39,0.00,40.00,11,6,20,0.66
2014-4-9,55,42,29,33,26,16,94,59,26,0.00,40.00,8,3,17,0.01
2014-4-10,67,51,28,30,25,21,76,41,21,0.00,40.00,13,7,26,0.00
2014-4-11,61,47,36,49,43,30,98,90,31,0.00,40.00,7,2,15,0.61
2014-4-12,68,50,34,46,34,26,98,64,22,0.00,40.00,7,3,14,0.04
2014-4-13,79,67,57,49,41,-100,58,42,29,0.00,40.00,12,6,23,0.00
2014-4-14,74,67,59,57,47,42,90,51,41,0.00,40.00,12,8,26,0.11
2014-4-15,59,37,23,55,33,15,97,85,71,0.00,40.00,8,3,15,0.49
2014-4-16,42,29,14,17,12,7,89,54,25,0.00,40.00,5,2,11,0.01
2014-4-17,58,42,29,25,18,12,53,39,25,0.00,40.00,9,5,20,0.01
2014-4-18,66,45,33,38,30,23,77,57,24,0.00,40.00,7,4,15,0.00
2014-4-19,63,49,34,40,28,17,98,53,17,0.00,40.00,7,4,13,0.00
2014-4-20,71,53,33,26,20,-100,68,34,13,0.00,40.00,7,4,13,0.00
2014-4-21,79,61,40,33,30,25,70,35,15,0.00,40.00,7,4,14,0.00
2014-4-22,60,53,38,55,43,32,98,72,38,0.00,40.00,8,5,19,0.18
2014-4-23,45,36,32,37,31,23,98,81,49,0.00,40.00,8,6,17,0.03
2014-4-24,59,42,24,25,17,10,92,46,15,0.00,40.00,7,4,13,0.01
2014-4-25,65,50,40,50,29,15,99,52,23,0.00,40.00,10,6,21,0.30
2014-4-26,60,48,39,44,38,29,100,74,41,0.00,40.00,11,7,19,0.25
2014-4-28,53,49,48,41,40,36,78,70,52,0.00,40.00,7,6,14,0.00
2014-4-29,49,46,44,45,43,39,95,87,77,0.00,40.00,14,10,24,0.37
2014-4-30,50,46,43,50,44,39,100,95,83,0.00,40.00,10,6,20,1.35
2014-5-1,59,53,49,52,44,31,100,74,40,0.00,40.00,9,6,18,0.52
2014-5-2,52,48,45,42,37,33,78,65,57,0.00,40.00,7,5,14,0.01
2014-5-3,55,48,43,45,41,38,97,78,57,0.00,40.00,8,5,16,0.11
2014-5-4,52,43,39,40,36,-100,94,78,57,0.00,40.00,7,4,13,0.18
2014-5-5,61,45,30,36,30,25,100,63,29,0.00,40.00,6,2,10,0.01
2014-5-6,67,50,32,34,30,28,90,52,25,0.00,40.00,6,3,15,0.00
2014-5-7,47,47,47,30,30,30,52,52,52,0.00,40.00,3,3,4,0.00
2014-5-13,85,76,70,61,60,60,73,58,44,0.00,40.00,6,3,13,1.17
2014-5-14,79,70,62,64,62,59,100,78,53,0.00,40.00,9,4,18,0.52
2014-5-15,69,63,52,63,59,51,99,87,72,0.00,40.00,9,7,19,0.57
2014-5-16,52,47,39,52,43,36,100,86,64,0.00,40.00,6,3,12,0.97
2014-5-17,54,42,32,41,37,32,100,84,56,0.00,40.00,6,2,10,0.03
2014-5-18,59,46,34,41,31,-100,100,65,31,0.00,40.00,5,2,10,0.02
2014-5-19,70,50,32,38,28,-100,99,56,26,0.00,40.00,8,3,16,0.00
2014-5-20,65,52,40,43,37,-100,91,62,35,0.00,40.00,5,2,8,0.00
2014-5-21,71,61,54,63,55,42,100,84,57,0.00,40.00,7,4,14,2.03
2014-5-22,74,60,52,62,52,-100,100,81,52,0.00,40.00,9,4,19,0.21
2014-5-23,59,51,43,50,45,41,100,83,52,0.00,40.00,8,4,15,0.00
2014-5-24,75,58,47,51,46,41,100,70,31,0.00,40.00,6,3,12,0.01
2014-5-25,79,60,39,52,41,-100,100,61,24,0.00,40.00,5,2,11,0.01
2014-5-26,81,65,45,55,49,44,97,62,33,0.00,40.00,6,3,13,0.00
2014-5-27,80,68,55,67,60,53,93,76,57,0.00,40.00,6,3,13,0.00
2014-5-28,80,69,59,66,60,52,100,75,40,0.00,40.00,5,3,10,0.49
2014-5-29,74,61,53,59,55,51,95,83,60,0.00,40.00,6,4,11,0.01
2014-5-30,77,63,52,55,52,47,99,71,36,0.00,40.00,5,3,12,0.00
2014-5-31,77,62,45,54,45,36,100,62,23,0.00,40.00,5,2,10,0.00
2014-6-1,81,60,41,45,40,-100,98,57,27,0.00,40.00,6,4,11,0.00
2014-6-2,81,73,66,68,66,63,98,79,56,0.00,40.00,6,4,11,0.09
2014-6-3,80,68,57,67,64,55,99,88,61,0.00,40.00,7,3,13,0.79
2014-6-4,70,59,46,58,53,46,100,83,48,0.00,40.00,4,1,7,0.09
2014-6-5,66,57,48,55,50,42,100,79,54,0.00,40.00,6,3,12,0.10
2014-6-6,74,57,41,53,48,41,100,74,45,0.00,40.00,5,2,10,0.00
2014-6-7,81,63,43,55,48,43,100,66,27,0.00,40.00,4,2,10,0.00
2014-6-8,79,62,50,66,56,-100,100,86,55,0.00,40.00,6,3,12,1.22
2014-6-9,69,62,57,62,60,56,100,91,75,0.00,40.00,4,2,8,0.09
2014-6-10,76,67,60,65,61,59,100,84,56,0.00,40.00,4,2,6,0.05
2014-6-11,79,69,61,67,64,61,100,84,60,0.00,40.00,7,4,14,0.21
2014-6-12,77,67,62,68,64,61,99,91,69,0.00,40.00,9,5,17,0.52
2014-6-13,73,64,51,65,62,51,100,92,69,0.00,40.00,6,3,17,1.40
2014-6-14,68,55,47,53,50,46,100,83,54,0.00,40.00,6,3,14,0.01
2014-6-15,82,60,40,58,46,-100,100,71,25,0.00,40.00,5,2,8,0.00
2014-6-16,81,65,48,69,59,48,100,83,57,0.00,40.00,5,2,12,0.01
2014-6-17,86,74,62,71,66,62,100,79,47,0.00,40.00,8,4,19,0.80
2014-6-18,84,71,63,69,66,63,100,86,55,0.00,40.00,5,3,9,1.23
2014-6-19,78,67,54,66,63,53,100,89,61,0.00,40.00,4,2,9,0.50
2014-6-20,79,62,43,59,48,40,100,67,27,0.00,40.00,3,2,7,0.01
2014-6-21,80,65,52,58,51,44,89,64,40,0.00,40.00,5,3,9,0.00
2014-6-22,81,65,52,62,52,-100,93,67,42,0.00,40.00,5,3,11,0.00
2014-6-23,83,68,56,65,60,56,100,80,52,0.00,40.00,5,3,10,0.00
2014-6-24,82,71,65,70,66,64,99,87,63,0.00,40.00,6,4,14,1.62
2014-6-25,74,67,65,68,66,65,100,97,83,0.00,40.00,4,2,6,1.97
2014-6-26,78,67,60,68,64,60,100,90,71,0.00,40.00,3,2,9,0.19
2014-6-27,82,68,56,67,61,56,100,81,48,0.00,40.00,4,2,7,0.06
2014-6-28,84,72,61,67,64,61,100,78,53,0.00,40.00,6,3,12,0.00
2014-6-29,81,69,60,71,62,-100,98,82,64,0.00,40.00,6,3,12,0.40
2014-6-30,84,73,65,71,68,65,100,86,56,0.00,40.00,6,2,10,0.16
2014-7-1,87,75,67,71,69,66,99,83,54,0.00,40.00,8,4,17,0.00
2014-7-2,83,74,64,71,67,63,99,78,55,0.00,40.00,6,3,13,0.19
2014-7-3,80,67,60,69,63,58,100,88,66,0.00,40.00,7,2,17,0.20
2014-7-4,70,60,50,58,51,47,100,75,45,0.00,40.00,6,4,15,0.19
2014-7-5,78,61,44,55,49,43,100,70,33,0.00,40.00,4,2,8,0.00
2014-7-6,75,61,49,57,49,-100,100,70,44,0.00,40.00,6,3,10,0.00
2014-7-7,77,69,61,70,63,56,96,84,72,0.00,40.00,8,5,16,0.11
2014-7-8,77,70,63,70,66,62,95,88,75,0.00,40.00,7,5,18,0.31
2014-7-9,77,66,56,64,60,55,99,85,56,0.00,40.00,7,3,14,0.18
2014-7-10,80,66,50,60,55,50,100,74,41,0.00,40.00,4,2,8,0.01
2014-7-11,83,68,52,64,57,52,100,73,40,0.00,40.00,3,2,5,0.00
2014-7-12,83,70,57,66,61,57,100,76,41,0.00,40.00,6,2,11,0.00
2014-7-13,81,70,64,71,65,61,99,84,70,0.00,40.00,6,4,13,0.32
2014-7-14,78,71,64,70,67,63,100,89,70,0.00,40.00,4,3,11,0.96
2014-7-15,76,68,57,67,61,54,100,81,47,0.00,40.00,7,4,15,1.44
2014-7-16,69,58,48,58,53,48,100,85,55,0.00,40.00,5,2,9,0.47
2014-7-17,70,58,45,56,50,45,100,79,50,0.00,40.00,5,2,10,0.00
2014-7-18,77,62,42,60,50,42,100,71,40,0.00,40.00,4,1,6,0.00
2014-7-19,64,61,58,62,59,56,99,95,90,0.00,40.00,6,3,9,0.85
2014-7-20,74,62,60,65,60,59,99,92,70,0.00,40.00,3,2,5,0.31
2014-7-21,84,71,58,70,64,58,100,83,55,0.00,40.00,4,2,7,0.00
2014-7-22,87,73,61,70,66,61,100,82,49,0.00,40.00,4,2,8,0.00
2014-7-23,83,71,63,70,67,59,98,87,63,0.00,40.00,6,4,10,0.02
2014-7-24,73,63,49,59,54,48,100,76,48,0.00,40.00,5,2,11,0.02
2014-7-25,76,58,41,58,49,41,100,77,38,0.00,40.00,4,1,9,0.00
2014-7-26,80,67,53,63,58,52,99,75,50,0.00,40.00,6,3,12,0.00
2014-7-27,84,67,60,67,62,59,99,84,52,0.00,40.00,6,3,12,0.47
2014-7-28,67,60,52,63,59,52,100,95,83,0.00,40.00,6,3,13,0.64
2014-7-29,67,57,50,55,52,49,100,85,57,0.00,40.00,4,2,8,0.04
2014-7-30,69,56,47,58,54,47,100,92,65,0.00,40.00,5,2,9,0.30
2014-7-31,74,60,54,60,53,54,100,83,51,0.00,40.00,5,3,11,0.01
2014-8-1,82,66,52,63,57,52,100,78,41,0.00,40.00,4,2,7,0.00
2014-8-2,76,64,55,66,60,55,100,90,63,0.00,40.00,5,2,9,1.38
2014-8-3,69,63,59,65,62,58,100,97,80,0.00,40.00,3,1,6,1.71
2014-8-4,81,66,58,64,61,58,100,86,48,0.00,40.00,4,2,8,0.02
2014-8-5,81,65,55,65,60,55,100,89,53,0.00,40.00,5,2,11,0.28
2014-8-6,75,66,57,63,59,57,100,81,55,0.00,40.00,4,2,9,0.02
2014-8-7,76,70,52,60,56,51,98,64,49,0.00,40.00,5,3,12,0.01
2014-8-8,76,60,46,59,53,46,100,81,43,0.00,40.00,4,1,6,0.00
2014-8-9,80,65,52,62,56,51,100,76,44,0.00,40.00,5,3,10,0.00
2014-8-10,82,66,54,63,56,53,100,73,44,0.00,40.00,7,3,9,0.00
2014-8-11,76,66,57,63,58,55,99,79,57,0.00,40.00,9,5,18,0.01
2014-8-12,77,66,61,68,64,60,99,94,72,0.00,40.00,6,5,14,1.82
2014-8-13,66,61,49,62,58,49,100,91,69,0.00,40.00,7,3,12,0.43
2014-8-14,67,55,44,55,48,44,100,79,47,0.00,40.00,7,3,17,0.02
2014-8-15,67,56,43,52,48,43,99,78,52,0.00,40.00,5,2,13,0.00
2014-8-16,74,57,42,53,47,42,100,75,41,0.00,40.00,6,3,14,0.00
2014-8-17,77,64,54,61,57,53,100,78,50,0.00,40.00,5,2,10,1.31
2014-8-18,81,62,47,61,54,47,100,80,43,0.00,40.00,4,1,7,0.36
2014-8-19,84,69,55,66,60,55,100,78,45,0.00,40.00,4,2,7,0.00
2014-8-20,77,67,61,67,64,61,100,90,66,0.00,40.00,5,2,9,0.88
2014-8-21,82,69,60,68,65,60,100,90,60,0.00,40.00,4,2,8,0.79
2014-8-22,82,69,63,69,66,63,100,91,63,0.00,40.00,4,2,8,0.78
2014-8-23,81,67,61,68,64,61,100,91,65,0.00,40.00,9,3,14,0.79
2014-8-24,77,64,57,62,58,57,99,83,58,0.00,40.00,6,3,13,0.01
2014-8-25,78,65,52,61,57,52,100,80,52,0.00,40.00,6,3,10,0.00
2014-8-26,83,68,51,65,60,51,100,79,53,0.00,40.00,5,2,9,0.04
2014-8-27,83,69,59,67,64,58,100,85,58,0.00,40.00,5,2,9,0.04
2014-8-28,71,60,48,58,52,48,99,79,47,0.00,40.00,6,2,12,0.00
2014-8-29,76,59,42,56,49,42,100,73,37,0.00,40.00,5,2,9,0.00
2014-8-30,83,68,53,70,61,52,98,81,57,0.00,40.00,6,3,8,0.00
2014-8-31,75,68,67,69,66,66,99,91,78,0.00,40.00,5,3,10,0.39
2014-9-1,80,72,68,69,68,67,99,88,69,0.00,40.00,5,3,14,0.17
2014-9-2,80,70,62,69,67,62,100,89,66,0.00,40.00,6,4,13,0.88
2014-9-3,80,67,58,63,60,56,100,83,46,0.00,40.00,4,2,7,0.74
2014-9-4,83,69,56,65,60,56,100,78,42,0.00,40.00,6,2,11,0.00
2014-9-5,86,71,58,69,64,58,100,80,54,0.00,40.00,7,3,14,0.00
2014-9-6,72,64,54,67,62,54,100,94,82,0.00,40.00,5,3,12,0.18
2014-9-7,74,57,43,55,50,43,100,79,44,0.00,40.00,4,1,8,0.01
2014-9-8,74,60,48,54,51,47,99,74,48,0.00,40.00,8,4,14,0.00
2014-9-9,72,63,55,61,57,52,92,82,66,0.00,40.00,7,4,13,0.00
2014-9-10,77,68,60,66,63,59,98,85,65,0.00,40.00,7,5,14,0.18
2014-9-11,69,62,53,68,60,52,98,93,83,0.00,40.00,7,5,13,0.93
2014-9-12,58,53,50,52,50,48,99,88,72,0.00,40.00,3,2,7,0.03
2014-9-13,61,52,43,53,48,43,99,86,62,0.00,40.00,7,4,13,0.05
2014-9-14,61,48,38,50,43,38,100,83,54,0.00,40.00,4,1,6,0.05
2014-9-15,65,52,41,53,46,41,100,83,50,0.00,40.00,5,2,10,0.01
2014-9-16,65,54,42,53,49,42,100,85,50,0.00,40.00,4,2,11,0.41
2014-9-17,67,51,39,50,44,39,100,80,43,0.00,40.00,5,1,9,0.01
2014-9-18,68,51,38,51,45,38,100,82,47,0.00,40.00,5,1,9,0.00
2014-9-19,68,52,39,52,46,39,100,82,48,0.00,40.00,6,3,8,0.00
2014-9-20,74,64,56,61,57,52,93,79,58,0.00,40.00,7,5,13,0.00
2014-9-21,74,64,55,65,59,51,95,84,64,0.00,40.00,8,5,16,0.13
2014-9-22,55,48,40,52,44,39,98,87,69,0.00,40.00,7,4,14,0.05
2014-9-23,69,50,33,52,43,33,99,82,45,0.00,40.00,4,1,7,0.01
2014-9-24,72,57,43,51,48,43,100,75,44,0.00,40.00,9,4,16,0.00
2014-9-25,70,56,47,52,50,47,99,82,48,0.00,40.00,6,2,10,0.00
2014-9-26,76,57,41,53,48,41,100,78,37,0.00,40.00,5,2,10,0.00
2014-9-27,80,59,43,56,50,43,100,77,33,0.00,40.00,4,2,10,0.00
2014-9-28,75,59,46,58,51,46,100,79,40,0.00,40.00,3,2,5,0.00
2014-9-29,76,61,50,59,54,50,100,81,43,0.00,40.00,4,1,8,0.00
2014-9-30,71,57,47,58,52,46,99,84,58,0.00,40.00,5,2,10,0.00